Location: Bois de la Silve
(44.4667°N, 6.7833°E)
Time: 09:20:56
(UTC+00:00)

AQUA - Pass Details

Date: 14 July 2020
Orbit: 701 x 703 km, 98.2° (Epoch: 05 August)

Event Time Altitude Azimuth Distance (km) Brightness Sun altitude
Rises 01:27:18 0° 14° (NNE) 3,102 8.6 -19.4°
Reaches altitude 10° 01:29:34 10° 16° (NNE) 2,179 7.5 -19.2°
Maximum altitude 01:34:21 78° 102° (ESE) 722 3.8 -18.8°
Enters shadow 01:36:23 35° 185° (S) 1,135 4.4 -18.7°
